Location: Boston
(42.3580°N, 71.0600°W)
Time: 01:03:04
(UTC-04:00)

Vanguard 2 Rocket - Visible Passes

Search period start: 18 October 2018 00:00
Search period end: 28 October 2018 00:00
Orbit: 553 x 3327 km, 32.9° (Epoch: 17 October)

Date Brightness Start Highest point End Pass type
(mag) Time Alt. Az. Time Alt. Az. Time Alt. Az.
19 Oct 10.2 21:41:11 10° SSW 21:42:28 12° SSW 21:42:28 12° SSW visible
20 Oct 9.9 20:41:17 10° S 20:46:39 17° S 20:46:39 17° S visible
21 Oct 9.9 19:42:17 10° S 19:48:41 14° SSE 19:50:49 13° SE visible
21 Oct 10.0 21:53:12 10° SW 21:56:39 17° SSW 21:56:39 17° SSW visible
22 Oct 10.1 18:46:33 10° SSE 18:48:13 10° SSE 18:49:50 10° SE visible
22 Oct 9.6 20:52:25 10° SSW 21:00:48 25° S 21:00:48 25° S visible
23 Oct 9.5 19:52:01 10° SSW 20:02:51 23° SSE 20:04:55 22° SE visible
23 Oct 9.9 22:06:01 10° SW 22:10:45 21° SW 22:10:45 21° SW visible
24 Oct 9.8 18:52:24 10° S 19:02:19 18° SSE 19:09:01 12° ESE visible
24 Oct 9.3 21:04:39 10° SW 21:14:51 32° S 21:14:51 32° S visible
25 Oct 9.2 20:03:30 10° SSW 20:16:58 31° SSE 20:18:54 30° SE visible
25 Oct 9.8 22:19:18 10° WSW 22:24:43 24° SW 22:24:43 24° SW visible
26 Oct 9.6 19:02:52 10° SSW 19:16:21 27° SSE 19:22:55 18° ESE visible
26 Oct 9.2 21:17:31 10° SW 21:28:44 39° SSW 21:28:44 39° SSW visible
27 Oct 10.0 18:03:02 10° S 18:15:34 22° SSE 18:25:23 10° ESE visible
27 Oct 9.0 20:15:52 10° SW 20:31:04 40° SSE 20:32:44 39° SSE visible
27 Oct 9.9 22:32:55 10° WSW 22:38:33 25° WSW 22:38:33 25° WSW visible
